Location: Black Forest
(43.4794°N, 75.0081°W)
Time: 22:21:19
(UTC-04:00)

ISS - All Passes

Search period start: 20 August 2014 00:00
Search period end: 30 August 2014 00:00
Orbit: 413 x 419 km, 51.6° (Epoch: 20 August)

Date Brightness Start Highest point End Pass type
(mag) Time Alt. Az. Time Alt. Az. Time Alt. Az.
20 Aug - 13:54:48 10° SSE 13:56:02 12° SE 13:57:17 10° ESE daylight
20 Aug - 15:28:58 10° SW 15:32:17 88° SSE 15:35:38 10° ENE daylight
20 Aug - 17:06:32 10° WNW 17:09:21 25° NNW 17:12:11 10° NE daylight
20 Aug - 18:44:17 10° NW 18:46:52 20° N 18:49:27 10° ENE daylight
20 Aug - 20:20:56 10° NW 20:24:11 46° NNE 20:27:25 10° E visible
20 Aug - 21:57:56 10° WNW 22:00:47 26° SW 22:03:38 10° SSE visible
21 Aug - 14:40:36 10° SW 14:43:50 52° SE 14:47:05 10° ENE daylight
21 Aug - 16:17:41 10° W 16:20:42 31° NNW 16:23:43 10° NE daylight
21 Aug - 17:55:38 10° NW 17:58:09 20° N 18:00:40 10° NE daylight
21 Aug - 19:32:30 10° NW 19:35:35 33° NNE 19:38:39 10° E daylight
21 Aug - 21:09:11 10° WNW 21:12:24 44° SW 21:15:35 10° SE visible
22 Aug - 13:52:27 10° SSW 13:55:25 30° SE 13:58:23 10° ENE daylight
22 Aug - 15:28:53 10° W 15:32:04 42° NNW 15:35:16 10° NE daylight
22 Aug - 17:06:52 10° NW 17:09:25 20° N 17:11:58 10° NE daylight
22 Aug - 18:44:02 10° NW 18:46:55 26° NNE 18:49:48 10° ENE daylight
22 Aug - 20:20:35 10° WNW 20:23:56 77° SW 20:27:15 10° SE visible
22 Aug - 22:00:00 10° SW 22:00:07 10° SW 22:00:15 10° SW visible
23 Aug - 13:04:40 10° S 13:07:02 18° SE 13:09:24 10° E daylight
23 Aug - 14:40:11 10° WSW 14:43:28 63° NNW 14:46:47 10° NE daylight
23 Aug - 16:18:00 10° WNW 16:20:41 22° N 16:23:21 10° NE daylight
23 Aug - 17:55:30 10° NW 17:58:12 22° N 18:00:54 10° ENE daylight
23 Aug - 19:32:04 10° NW 19:35:23 66° NNE 19:38:42 10° ESE daylight
23 Aug - 21:09:32 10° W 21:11:48 17° SW 21:14:04 10° S visible
24 Aug - 12:17:53 10° SE 12:18:42 11° SE 12:19:31 10° ESE daylight
24 Aug - 13:51:36 10° SW 13:54:55 82° SE 13:58:15 10° ENE daylight
24 Aug - 15:29:06 10° WNW 15:31:57 25° NNW 15:34:48 10° NE daylight
24 Aug - 17:06:53 10° NW 17:09:27 20° N 17:12:01 10° NE daylight
24 Aug - 18:43:34 10° NW 18:46:47 44° NNE 18:49:59 10° E daylight
24 Aug - 20:20:29 10° WNW 20:23:25 28° SW 20:26:20 10° SSE visible
25 Aug - 13:03:12 10° SW 13:06:24 47° SE 13:09:37 10° ENE daylight
25 Aug - 14:40:12 10° W 14:43:14 32° NNW 14:46:17 10° NE daylight
25 Aug - 16:18:09 10° NW 16:20:40 20° N 16:23:11 10° NE daylight
25 Aug - 17:55:04 10° NW 17:58:06 32° NNE 18:01:09 10° E daylight
25 Aug - 19:31:43 10° WNW 19:34:57 48° SW 19:38:10 10° SE daylight
26 Aug - 12:15:02 10° SSW 12:17:55 28° SE 12:20:49 10° ENE daylight
26 Aug - 13:51:20 10° W 13:54:33 44° NNW 13:57:46 10° NE daylight
26 Aug - 15:29:18 10° NW 15:31:52 20° N 15:34:26 10° NE daylight
26 Aug - 17:06:31 10° NW 17:09:22 25° NNE 17:12:13 10° ENE daylight
26 Aug - 18:43:04 10° WNW 18:46:24 83° SW 18:49:44 10° SE daylight
26 Aug - 20:21:40 10° WSW 20:22:38 11° SW 20:23:36 10° SSW visible
27 Aug - 11:27:16 10° S 11:29:29 17° SE 11:31:43 10° E daylight
27 Aug - 13:02:35 10° WSW 13:05:53 67° NNW 13:09:13 10° NE daylight
27 Aug - 14:40:22 10° WNW 14:43:04 22° N 14:45:46 10° NE daylight
27 Aug - 16:17:55 10° NW 16:20:35 22° N 16:23:15 10° ENE daylight
27 Aug - 17:54:29 10° NW 17:57:47 61° NNE 18:01:05 10° ESE daylight
27 Aug - 19:31:50 10° W 19:34:14 19° SW 19:36:38 10° S daylight
28 Aug - 12:13:58 10° SW 12:17:16 75° SE 12:20:36 10° ENE daylight
28 Aug - 13:51:24 10° WNW 13:54:16 26° NNW 13:57:09 10° NE daylight
28 Aug - 15:29:13 10° NW 15:31:46 20° N 15:34:19 10° NE daylight
28 Aug - 17:05:55 10° NW 17:09:06 41° NNE 17:12:17 10° E daylight
28 Aug - 18:42:47 10° WNW 18:45:46 31° SW 18:48:45 10° SSE daylight
29 Aug - 11:25:32 10° SSW 11:28:42 43° SE 11:31:53 10° ENE daylight
29 Aug - 13:02:26 10° W 13:05:30 34° NNW 13:08:34 10° NE daylight
29 Aug - 14:40:24 10° NW 14:42:55 20° N 14:45:26 10° NE daylight
29 Aug - 16:17:21 10° NW 16:20:22 30° NNE 16:23:22 10° E daylight
29 Aug - 17:53:58 10° WNW 17:57:14 53° SW 18:00:29 10° SE daylight
